[[{"header":{"parameterUnit":"m.s-1","parameterCategory":2,"la1":30.2991,"la2":30.254,"lo1":-89.0895,"lo2":-89.0444,"dy":0.0017,"dx":0.0017,"nx":28,"ny":28,"refTime":"2023-04-22T21:00:00:Z","depth":"0","parameterNumber":2,"parameterNumberName":"U-component_of_CURRENTS"},"data":[0,0,0,0,0,0,0,0,0,0,0,0,0,0,0,0,0,0,0,0,0,0,0,0,0,0,0,0,0,0,0,0,0,0,0,0,0,0,0,0,0,0,0,0,0,0,0,0,0,0,0,0,0,0,0,0,0,0,-0.2192,-0.2192,0,-0.2214,-0.2214,-0.2214,-0.218,-0.2179,-0.2178,-0.2177,-0.2171,-0.2172,-0.2173,0,0,0,0,0,0,0,0,0,0,0,0,0,-0.2147,-0.2148,-0.2192,-0.2192,-0.2193,-0.2214,-0.2214,-0.2214,-0.2181,-0.2179,-0.2178,-0.2177,-0.2171,-0.2172,-0.2173,0,0,0,0,0,0,0,0,0,0,0,0,0,-0.2167,-0.2148,-0.2192,-0.2179,-0.2178,-0.2214,-0.2214,-0.2215,-0.2181,-0.2179,-0.2178,-0.2176,-0.2171,-0.2172,-0.2173,-0.2213,0,0,-0.2177,-0.2178,0,0,0,0,0,0,0,0,-0.2166,-0.2168,-0.2181,-0.218,-0.2179,-0.2194,-0.2196,-0.2213,-0.2181,-0.2179,-0.2177,-0.2175,-0.2178,-0.2179,-0.2185,-0.2213,-0.2213,-0.2177,-0.2178,-0.2178,-0.2179,0,0,0,0,0,0,0,-0.2164,-0.2167,-0.2199,-0.2181,-0.218,-0.2182,-0.2182,-0.22,-0.2186,-0.2179,-0.2177,-0.2182,-0.2177,-0.2184,-0.2185,-0.2213,-0.2177,-0.2178,-0.2179,-0.2179,-0.2256,-0.2258,0,0,0,0,0,0,-0.2164,-0.2166,-0.2199,-0.22,-0.217,-0.2184,-0.2185,-0.219,-0.2186,-0.2185,-0.2183,-0.218,-0.2183,-0.2183,-0.2184,-0.2224,-0.2178,-0.218,-0.218,-0.2255,-0.2257,-0.2258,0,0,0,0,0,0,-0.2163,-0.2167,-0.2198,-0.2184,-0.2188,-0.2186,-0.2193,-0.2191,-0.2191,-0.219,-0.2187,-0.2183,-0.2182,-0.2183,-0.22,-0.2224,-0.218,-0.2181,-0.2254,-0.2256,-0.2257,-0.2308,0,0,0,0,0,0,-0.2162,-0.2167,-0.2168,-0.2184,-0.2189,-0.2222,-0.2194,-0.2193,-0.2197,-0.2193,-0.219,-0.2187,-0.218,-0.2198,-0.2201,-0.2224,-0.2182,-0.2252,-0.2255,-0.2257,-0.2305,-0.2312,-0.2317,0,0,0,0,0,-0.216,-0.2171,-0.2168,-0.2172,-0.2192,-0.2223,-0.2226,-0.2218,-0.2199,-0.2209,-0.2203,-0.2187,-0.2215,-0.22,-0.2203,-0.2228,-0.2251,-0.2254,-0.2257,-0.2302,-0.231,-0.2317,0,0,0,0,0,0,-0.2151,-0.2169,-0.2166,-0.218,-0.2201,-0.2218,-0.2225,-0.2222,-0.2227,-0.2217,-0.2207,-0.2206,-0.2231,-0.2225,-0.2209,-0.2257,-0.223,-0.2234,-0.2263,-0.2271,-0.2277,-0.2272,-0.2183,0,0,0,0,0,-0.2152,-0.2162,-0.2185,-0.2196,-0.2206,-0.2216,-0.2225,-0.2226,-0.2234,-0.2234,-0.2232,-0.2233,-0.225,-0.2254,-0.2266,-0.2295,-0.2279,-0.2313,-0.2319,-0.2324,-0.2323,-0.2326,-0.2332,-0.2268,-0.2268,-0.2268,0,0,-0.215,-0.2162,-0.2166,-0.2194,-0.2205,-0.2237,-0.2217,-0.2237,-0.2261,-0.2235,-0.2257,-0.2257,-0.2263,-0.2293,-0.2304,-0.2289,-0.2334,-0.2328,-0.2332,-0.2328,-0.233,-0.2336,-0.2341,-0.227,-0.2269,-0.2269,0,0,-0.2163,-0.2165,-0.2182,-0.2206,-0.2232,-0.2247,-0.2254,-0.2276,-0.2279,-0.231,-0.2296,-0.231,-0.2331,-0.2341,-0.2349,-0.24,-0.2368,-0.2402,-0.2429,-0.2433,-0.2438,-0.2442,-0.2426,-0.2428,-0.2403,-0.2403,-0.2403,0,-0.2159,-0.2185,-0.2193,-0.2226,-0.2245,-0.2254,-0.2286,-0.2305,-0.2328,-0.2339,-0.2321,-0.2356,-0.2357,-0.2399,-0.241,-0.2414,-0.2398,-0.2399,-0.244,-0.2444,-0.2447,-0.2429,-0.2431,-0.2406,-0.2406,-0.2405,-0.2405,0,-0.2192,-0.2215,-0.223,-0.2271,-0.2296,-0.2325,-0.2357,-0.2379,-0.2381,-0.2395,-0.2427,-0.2431,-0.2446,-0.2456,-0.2447,-0.248,-0.2454,-0.2448,-0.2418,-0.2456,-0.2435,-0.2437,-0.241,-0.2409,-0.2408,-0.2408,0,0,-0.2168,-0.2239,-0.2241,-0.2264,-0.232,-0.234,-0.2392,-0.2436,-0.2459,-0.2478,-0.2504,-0.2533,-0.2519,-0.2527,-0.2521,-0.2524,-0.2534,-0.2493,-0.2492,-0.2471,-0.2523,-0.2446,-0.2439,-0.2529,-0.2529,-0.253,-0.2497,0,-0.2187,-0.2245,-0.2282,-0.2333,-0.2362,-0.2399,-0.2445,-0.2484,-0.2509,-0.2538,-0.2549,-0.2569,-0.2553,-0.2552,-0.2559,-0.2542,-0.2539,-0.2542,-0.2493,-0.2491,-0.2414,-0.2439,-0.2347,-0.2304,-0.2497,-0.2498,-0.2498,0,-0.2198,-0.2236,-0.2289,-0.2356,-0.2371,-0.2404,-0.2461,-0.2507,-0.2563,-0.258,-0.2607,-0.2609,-0.2627,-0.2599,-0.2592,-0.2591,-0.2558,-0.254,-0.2538,-0.2447,-0.2416,-0.2298,-0.2298,-0.2269,-0.2499,-0.2499,-0.2499,0,-0.2152,-0.2234,-0.227,-0.2294,-0.2377,-0.24,-0.244,-0.2506,-0.2547,-0.2596,-0.2619,-0.2643,-0.2642,-0.2627,-0.2588,-0.2588,-0.2562,-0.256,-0.2462,-0.2456,-0.2358,-0.2341,-0.2317,-0.2548,-0.2548,-0.2548,-0.2548,0,-0.2145,-0.2169,-0.2246,-0.2261,-0.2301,-0.2366,-0.2414,-0.2462,-0.2535,-0.257,-0.2622,-0.264,-0.2646,-0.2635,-0.2599,-0.2526,-0.2571,-0.2464,-0.2445,-0.2372,-0.2358,-0.2311,-0.2324,-0.2547,-0.2547,-0.2547,-0.2548,0,-0.208,-0.2138,-0.2176,-0.2254,-0.2278,-0.2296,-0.239,-0.2426,-0.2504,-0.255,-0.2563,-0.2631,-0.2611,-0.2606,-0.2571,-0.2524,-0.2423,-0.2433,-0.2335,-0.2304,-0.2178,-0.2197,-0.2136,-0.2085,-0.2323,-0.2321,-0.2319,0,-0.2052,-0.2065,-0.2142,-0.216,-0.2189,-0.2239,-0.2278,-0.2383,-0.2426,-0.2529,-0.2537,-0.2561,-0.2547,-0.2488,-0.2419,-0.2345,-0.2335,-0.2209,-0.2196,-0.2153,-0.2163,-0.217,-0.2134,-0.2087,-0.2083,-0.2081,-0.2078,0,-0.1983,-0.2008,-0.2034,-0.2077,-0.211,-0.2161,-0.222,-0.2256,-0.2368,-0.2412,-0.2448,-0.245,-0.2417,-0.2307,-0.2225,-0.2169,-0.2149,-0.2145,-0.2136,-0.1999,-0.1974,-0.1921,-0.2123,-0.2053,-0.2055,-0.2057,-0.2059,-0.206,-0.1912,-0.1913,-0.1949,-0.1976,-0.202,-0.2049,-0.2039,-0.2119,-0.2162,-0.2192,-0.2285,-0.226,-0.2206,-0.2083,-0.2018,-0.1889,-0.1957,-0.1833,-0.1867,-0.1883,-0.1814,-0.1946,-0.1835,-0.1837,-0.1838,-0.1839,-0.184,0,-0.1819,-0.1829,-0.185,-0.1872,-0.1863,-0.1928,-0.1972,-0.1941,-0.1929,-0.2004,-0.2014,-0.2005,-0.189,-0.1851,-0.1736,-0.1642,-0.161,-0.1606,-0.1612,-0.1593,-0.1727,-0.1695,-0.1507,-0.1507,-0.1507,-0.1507,-0.1507,-0.1507,-0.1769,-0.1747,-0.1759,-0.1701,-0.1709,-0.1648,-0.1635,-0.1618,-0.1644,-0.1633,-0.1667,-0.1755,-0.1725,-0.1767,-0.1618,-0.1526,-0.1491,-0.1433,-0.147,-0.1586,-0.161,-0.1634,-0.1606,-0.1402,-0.1402,-0.1276,-0.1276,-0.1275]},{"header":{"parameterUnit":"m.s-1","parameterCategory":2,"la1":30.2991,"la2":30.254,"lo1":-89.0895,"lo2":-89.0444,"dy":0.0017,"dx":0.0017,"nx":28,"ny":28,"refTime":"2023-04-22T21:00:00:Z","depth":"0","parameterNumber":3,"parameterNumberName":"V-component_of_CURRENTS"},"data":[0,0,0,0,0,0,0,0,0,0,0,0,0,0,0,0,0,0,0,0,0,0,0,0,0,0,0,0,0,0,0,0,0,0,0,0,0,0,0,0,0,0,0,0,0,0,0,0,0,0,0,0,0,0,0,0,0,0,-0.0331,-0.0331,0,-0.0278,-0.0278,-0.0277,-0.0236,-0.0235,-0.0235,-0.0235,-0.0146,-0.0144,-0.0142,0,0,0,0,0,0,0,0,0,0,0,0,0,-0.0368,-0.0368,-0.0331,-0.0331,-0.033,-0.0279,-0.0278,-0.0277,-0.0236,-0.0235,-0.0235,-0.0235,-0.0147,-0.0144,-0.0142,0,0,0,0,0,0,0,0,0,0,0,0,0,-0.0337,-0.0368,-0.0331,-0.0304,-0.0301,-0.0279,-0.0278,-0.0277,-0.0236,-0.0235,-0.0235,-0.0235,-0.0148,-0.0144,-0.0141,-0.0132,0,0,-0.0132,-0.0131,0,0,0,0,0,0,0,0,-0.0339,-0.0335,-0.0309,-0.0306,-0.0303,-0.0264,-0.0258,-0.0227,-0.0236,-0.026,-0.0235,-0.0234,-0.0183,-0.0177,-0.0167,-0.0127,-0.0124,-0.0132,-0.013,-0.0128,-0.0128,0,0,0,0,0,0,0,-0.0341,-0.0337,-0.0309,-0.0308,-0.0305,-0.0285,-0.028,-0.0252,-0.0223,-0.0258,-0.0255,-0.0251,-0.0181,-0.017,-0.0165,-0.0122,-0.0132,-0.0129,-0.0127,-0.0126,-0.0053,-0.0053,0,0,0,0,0,0,-0.0351,-0.034,-0.0311,-0.0308,-0.0321,-0.0285,-0.0279,-0.0276,-0.0224,-0.0217,-0.0251,-0.0249,-0.0176,-0.0169,-0.0162,-0.0142,-0.0128,-0.0126,-0.0124,-0.0053,-0.0053,-0.0053,0,0,0,0,0,0,-0.0352,-0.0349,-0.0313,-0.0323,-0.0317,-0.0285,-0.0282,-0.0275,-0.0265,-0.022,-0.0211,-0.0247,-0.0175,-0.0166,-0.0138,-0.0138,-0.0124,-0.0121,-0.0053,-0.0053,-0.0053,-0.0106,0,0,0,0,0,0,-0.0354,-0.035,-0.0353,-0.0324,-0.0317,-0.0306,-0.0282,-0.0275,-0.0263,-0.026,-0.0213,-0.0205,-0.0174,-0.0143,-0.0135,-0.0134,-0.0119,-0.0053,-0.0053,-0.0053,-0.0104,-0.0108,-0.011,0,0,0,0,0,-0.0355,-0.0365,-0.0353,-0.035,-0.0322,-0.0307,-0.0302,-0.0276,-0.0264,-0.0264,-0.023,-0.0206,-0.0137,-0.0141,-0.0132,-0.0129,-0.0053,-0.0053,-0.0053,-0.0103,-0.0107,-0.011,0,0,0,0,0,0,-0.0381,-0.0361,-0.0348,-0.035,-0.0332,-0.0301,-0.03,-0.0281,-0.0256,-0.0251,-0.0207,-0.0196,-0.0172,-0.0144,-0.015,-0.0107,-0.009,-0.0088,-0.0131,-0.0134,-0.0138,-0.0151,-0.0116,0,0,0,0,0,-0.0389,-0.0391,-0.0365,-0.0366,-0.036,-0.0331,-0.0322,-0.0305,-0.0278,-0.0267,-0.0234,-0.0197,-0.0164,-0.0145,-0.0115,-0.0093,-0.0064,-0.0084,-0.0087,-0.009,-0.0094,-0.005,-0.005,-0.0053,-0.0053,-0.0053,0,0,-0.0399,-0.0388,-0.0388,-0.0372,-0.0356,-0.0356,-0.0324,-0.0316,-0.0312,-0.0261,-0.0246,-0.0209,-0.0162,-0.0138,-0.0124,-0.0113,-0.0075,-0.009,-0.0093,-0.0095,-0.005,-0.005,-0.0049,-0.0053,-0.0053,-0.0053,0,0,-0.0427,-0.0411,-0.0425,-0.0416,-0.0399,-0.0378,-0.0379,-0.035,-0.0333,-0.0314,-0.0274,-0.0237,-0.0195,-0.0156,-0.0131,-0.0133,-0.0096,-0.0124,-0.0147,-0.0105,-0.0104,-0.0103,-0.0074,-0.007,-0.0123,-0.0123,-0.0123,0,-0.0442,-0.0454,-0.0426,-0.0439,-0.0437,-0.0392,-0.0407,-0.0382,-0.0348,-0.0334,-0.0318,-0.0243,-0.0201,-0.0162,-0.016,-0.0139,-0.0117,-0.0139,-0.011,-0.0108,-0.0106,-0.0076,-0.0071,-0.0125,-0.0125,-0.0125,-0.0124,0,-0.0483,-0.0492,-0.0499,-0.0499,-0.049,-0.0495,-0.0461,-0.0446,-0.0417,-0.0388,-0.0347,-0.0286,-0.0241,-0.0218,-0.0189,-0.0154,-0.0144,-0.0123,-0.0104,-0.0109,-0.0077,-0.0071,-0.0129,-0.0128,-0.0127,-0.0127,0,0,-0.0519,-0.0528,-0.0532,-0.0543,-0.0524,-0.0522,-0.0511,-0.0487,-0.048,-0.0429,-0.0411,-0.0341,-0.0303,-0.0272,-0.0223,-0.0179,-0.0144,-0.0152,-0.0148,-0.0129,-0.0062,-0.0012,-0.0001,-0.0122,-0.0121,-0.012,-0.0048,0,-0.0561,-0.0606,-0.0591,-0.0619,-0.0637,-0.0596,-0.0591,-0.056,-0.052,-0.0489,-0.041,-0.0373,-0.0324,-0.03,-0.025,-0.0169,-0.013,-0.0166,-0.0053,-0.005,-0.001,0.0008,0.0031,0.0102,-0.0041,-0.004,-0.0039,0,-0.0608,-0.0632,-0.0677,-0.0686,-0.0688,-0.0693,-0.0673,-0.0663,-0.0602,-0.057,-0.0511,-0.0448,-0.0368,-0.0329,-0.0198,-0.0227,-0.0155,-0.0091,-0.0086,-0.0016,0.0012,0.0088,0.0119,0.0243,-0.003,-0.003,-0.0031,0,-0.0657,-0.0689,-0.0727,-0.0733,-0.0735,-0.0739,-0.0733,-0.0691,-0.0683,-0.0618,-0.0595,-0.0497,-0.0441,-0.0337,-0.0193,-0.0201,-0.0048,-0.0041,0.0069,0.0073,0.0129,0.0136,0.0289,0.0042,0.0042,0.0042,0.0042,0,-0.071,-0.0739,-0.0756,-0.0779,-0.0819,-0.0795,-0.082,-0.0793,-0.0754,-0.074,-0.0641,-0.0597,-0.044,-0.0326,-0.021,-0.0041,-0.0058,0.0071,0.0102,0.0111,0.0116,0.0255,0.0306,0.0044,0.0044,0.0043,0.0043,0,-0.0757,-0.0769,-0.0816,-0.0837,-0.0846,-0.0875,-0.0887,-0.09,-0.0848,-0.0823,-0.0801,-0.0667,-0.0511,-0.0344,-0.0162,-0.0056,0.0186,0.0154,0.0152,0.0182,0.0392,0.0438,0.0623,0.0721,0.0277,0.0279,0.0281,0,-0.0785,-0.0817,-0.0868,-0.0905,-0.0918,-0.0958,-0.0987,-0.0956,-0.0955,-0.086,-0.0842,-0.0687,-0.0561,-0.0268,-0.005,0.0169,0.0273,0.031,0.0307,0.0419,0.0494,0.0525,0.0595,0.0354,0.0356,0.0357,0.0359,0,-0.0835,-0.0853,-0.0893,-0.0979,-0.1023,-0.1072,-0.1095,-0.1101,-0.1047,-0.1,-0.0896,-0.0786,-0.0483,-0.0205,0.0093,0.0222,0.042,0.035,0.0474,0.0579,0.0615,0.0718,0.0279,0.0373,0.0372,0.0371,0.037,0.0369,-0.0864,-0.0911,-0.0972,-0.1048,-0.1106,-0.1157,-0.1186,-0.1183,-0.1164,-0.1064,-0.0948,-0.0752,-0.0341,0.0093,0.0257,0.059,0.0558,0.0666,0.0714,0.0736,0.0837,0.0427,0.0554,0.0554,0.0554,0.0553,0.0553,0,-0.09,-0.0956,-0.1038,-0.1123,-0.1194,-0.1206,-0.1237,-0.1236,-0.1205,-0.108,-0.0956,-0.0502,-0.0092,0.0296,0.0773,0.0941,0.0987,0.1014,0.106,0.1118,0.0763,0.0774,0.0945,0.0945,0.0945,0.0945,0.0945,0.0944,-0.0919,-0.1003,-0.1051,-0.1175,-0.1231,-0.129,-0.1299,-0.1279,-0.1191,-0.0971,-0.072,-0.0509,0.0065,0.0827,0.1259,0.1285,0.1441,0.1405,0.1511,0.125,0.122,0.1192,0.1216,0.1477,0.1478,0.1853,0.1856,0.1859]}],[{"header":{"parameterUnit":"m.s-1","parameterCategory":2,"la1":30.2991,"la2":30.254,"lo1":-89.0895,"lo2":-89.0444,"dy":0.0017,"dx":0.0017,"nx":28,"ny":28,"refTime":"2023-04-22T21:00:00:Z","depth":"2","parameterNumber":2,"parameterNumberName":"U-component_of_CURRENTS"},"data":[0,0,0,0,0,0,0,0,0,0,0,0,0,0,0,0,0,0,0,0,0,0,0,0,0,0,0,0,0,0,0,0,0,0,0,0,0,0,0,0,0,0,0,0,0,0,0,0,0,0,0,0,0,0,0,0,0,0,-0.2061,-0.2062,0,-0.2087,-0.2087,-0.2088,-0.2061,-0.206,-0.2059,-0.2058,-0.2055,-0.2056,-0.2057,0,0,0,0,0,0,0,0,0,0,0,0,0,-0.201,-0.2011,-0.2061,-0.2062,-0.2062,-0.2087,-0.2087,-0.2088,-0.2061,-0.206,-0.2059,-0.2058,-0.2055,-0.2056,-0.2057,0,0,0,0,0,0,0,0,0,0,0,0,0,-0.2032,-0.2011,-0.2061,-0.2053,-0.2053,-0.2087,-0.2087,-0.2088,-0.2061,-0.206,-0.2059,-0.2057,-0.2055,-0.2056,-0.2057,-0.2092,0,0,-0.2061,-0.2061,0,0,0,0,0,0,0,0,-0.2031,-0.2034,-0.2054,-0.2054,-0.2053,-0.2071,-0.2068,-0.2088,-0.2062,-0.2057,-0.2058,-0.2057,-0.206,-0.206,-0.2067,-0.2091,-0.2091,-0.2061,-0.2061,-0.2062,-0.2062,0,0,0,0,0,0,0,-0.203,-0.2033,-0.207,-0.2054,-0.2054,-0.2055,-0.2057,-0.2072,-0.2064,-0.2057,-0.2055,-0.2061,-0.2059,-0.2066,-0.2066,-0.2091,-0.2061,-0.2062,-0.2062,-0.2063,-0.2134,-0.2135,0,0,0,0,0,0,-0.203,-0.2032,-0.2069,-0.2071,-0.204,-0.2057,-0.2059,-0.2065,-0.2064,-0.2063,-0.2062,-0.206,-0.2064,-0.2065,-0.2066,-0.2105,-0.2062,-0.2063,-0.2064,-0.2133,-0.2134,-0.2135,0,0,0,0,0,0,-0.2029,-0.2033,-0.2068,-0.2053,-0.2057,-0.206,-0.2067,-0.2067,-0.2069,-0.2069,-0.2067,-0.2064,-0.2063,-0.2065,-0.2082,-0.2104,-0.2064,-0.2065,-0.2131,-0.2133,-0.2135,-0.2183,0,0,0,0,0,0,-0.2027,-0.2033,-0.2036,-0.2053,-0.2058,-0.2093,-0.2069,-0.2068,-0.2075,-0.2072,-0.2071,-0.2069,-0.2062,-0.208,-0.2083,-0.2105,-0.2065,-0.213,-0.2132,-0.2134,-0.218,-0.2186,-0.2192,0,0,0,0,0,-0.2025,-0.2037,-0.2036,-0.204,-0.2063,-0.2094,-0.2097,-0.2093,-0.2077,-0.2087,-0.2083,-0.2069,-0.2096,-0.2082,-0.2085,-0.2108,-0.2129,-0.2131,-0.2134,-0.2178,-0.2185,-0.2192,0,0,0,0,0,0,-0.2016,-0.2036,-0.2035,-0.2051,-0.2073,-0.209,-0.2097,-0.2097,-0.2103,-0.2096,-0.2087,-0.2087,-0.2111,-0.2105,-0.209,-0.2135,-0.2109,-0.2113,-0.2141,-0.2149,-0.2154,-0.2149,-0.2066,0,0,0,0,0,-0.2017,-0.2029,-0.2052,-0.2065,-0.2076,-0.2087,-0.2097,-0.21,-0.211,-0.211,-0.211,-0.2113,-0.2128,-0.2132,-0.2143,-0.2171,-0.2155,-0.2187,-0.2193,-0.2198,-0.2195,-0.2199,-0.2205,-0.2144,-0.2144,-0.2144,0,0,-0.2015,-0.2029,-0.2034,-0.2064,-0.2076,-0.2105,-0.2089,-0.2111,-0.2133,-0.2111,-0.2134,-0.2135,-0.214,-0.2169,-0.2179,-0.2165,-0.2207,-0.2201,-0.2205,-0.22,-0.2202,-0.2208,-0.2213,-0.2146,-0.2146,-0.2145,0,0,-0.2027,-0.2033,-0.205,-0.2074,-0.2101,-0.2115,-0.2123,-0.2146,-0.2151,-0.2182,-0.217,-0.2184,-0.2205,-0.2214,-0.2221,-0.2267,-0.2239,-0.227,-0.2295,-0.2299,-0.2304,-0.2308,-0.2293,-0.2295,-0.2272,-0.2272,-0.2272,0,-0.2024,-0.205,-0.2061,-0.2091,-0.2111,-0.2122,-0.2152,-0.2171,-0.2196,-0.2206,-0.2193,-0.2227,-0.2229,-0.2265,-0.2277,-0.2281,-0.2267,-0.2268,-0.2306,-0.231,-0.2313,-0.2297,-0.2299,-0.2274,-0.2274,-0.2274,-0.2274,0,-0.2054,-0.2077,-0.2092,-0.2132,-0.2156,-0.2184,-0.2216,-0.2238,-0.2243,-0.2258,-0.229,-0.2295,-0.2309,-0.2319,-0.2311,-0.2342,-0.232,-0.2313,-0.2286,-0.2322,-0.2303,-0.2304,-0.2278,-0.2277,-0.2277,-0.2276,0,0,-0.2032,-0.21,-0.2102,-0.2123,-0.2178,-0.2197,-0.2246,-0.2287,-0.231,-0.2332,-0.2357,-0.2385,-0.2375,-0.2382,-0.2378,-0.2382,-0.2393,-0.2355,-0.2354,-0.2335,-0.2385,-0.2313,-0.2307,-0.239,-0.2391,-0.2391,-0.2361,0,-0.2049,-0.2103,-0.2138,-0.2185,-0.2211,-0.2248,-0.2291,-0.2329,-0.2355,-0.2385,-0.2397,-0.2418,-0.2405,-0.2407,-0.2414,-0.2399,-0.2398,-0.24,-0.2356,-0.2355,-0.2283,-0.2307,-0.2145,-0.21,-0.2362,-0.2362,-0.2362,0,-0.2059,-0.2093,-0.2142,-0.2203,-0.2218,-0.225,-0.2304,-0.2347,-0.2402,-0.2421,-0.2448,-0.2453,-0.2472,-0.2449,-0.2444,-0.2443,-0.2415,-0.24,-0.2398,-0.2313,-0.2285,-0.2108,-0.2092,-0.2363,-0.2363,-0.2363,-0.2363,0,-0.2014,-0.2089,-0.2122,-0.2145,-0.2222,-0.2245,-0.2284,-0.2347,-0.2385,-0.2436,-0.2459,-0.2484,-0.2488,-0.2474,-0.2443,-0.2442,-0.2422,-0.2418,-0.2329,-0.2323,-0.2167,-0.2146,-0.2408,-0.2408,-0.2409,-0.2409,-0.2409,0,-0.2006,-0.2027,-0.21,-0.2114,-0.215,-0.2213,-0.2258,-0.2305,-0.2376,-0.2407,-0.2462,-0.248,-0.2492,-0.2485,-0.2453,-0.2388,-0.243,-0.233,-0.2313,-0.2179,-0.2161,-0.2374,-0.2371,-0.2407,-0.2408,-0.2408,-0.2408,0,-0.1944,-0.1998,-0.2032,-0.2106,-0.2128,-0.2146,-0.2235,-0.2268,-0.2346,-0.2389,-0.2403,-0.2475,-0.246,-0.2461,-0.2432,-0.2388,-0.2342,-0.2306,-0.2139,-0.2103,-0.2236,-0.2236,-0.2206,-0.2203,-0.22,-0.2199,-0.2197,0,-0.1917,-0.1929,-0.2,-0.2016,-0.2045,-0.2093,-0.2127,-0.2228,-0.2267,-0.2368,-0.2376,-0.2407,-0.2395,-0.2349,-0.228,-0.2211,-0.2274,-0.2019,-0.1992,-0.223,-0.2217,-0.222,-0.2223,-0.1803,-0.1798,-0.1794,-0.1791,0,-0.1852,-0.1875,-0.1899,-0.1937,-0.1968,-0.2011,-0.2067,-0.2097,-0.2202,-0.2244,-0.2281,-0.2285,-0.2261,-0.2123,-0.2051,-0.199,-0.2021,-0.1938,-0.2226,-0.1885,-0.1849,-0.1837,-0.1853,-0.1757,-0.176,-0.1763,-0.1765,-0.1766,-0.1785,-0.1785,-0.1817,-0.1839,-0.1879,-0.1899,-0.1885,-0.1957,-0.1992,-0.2014,-0.2109,-0.2061,-0.2045,-0.1858,-0.1749,-0.1668,-0.1813,-0.1724,-0.1736,-0.1752,-0.1716,-0.168,-0.1547,-0.1549,-0.1551,-0.1553,-0.1554,0,-0.1697,-0.1704,-0.172,-0.1735,-0.1722,-0.1785,-0.1817,-0.1778,-0.1759,-0.1813,-0.1822,-0.1653,-0.1565,-0.1548,-0.1375,-0.1334,-0.1322,-0.1266,-0.1253,-0.1289,-0.1321,-0.1263,-0.0973,-0.0971,-0.0969,-0.0968,0,0,-0.1648,-0.1623,-0.163,-0.1566,-0.1571,-0.1506,-0.1488,-0.1459,-0.1465,-0.1412,-0.1393,-0.1513,-0.1534,-0.1265,-0.119,-0.1054,-0.1159,-0.0998,-0.1471,-0.1494,-0.1523,-0.1595,-0.1548,0,0,0,0,0]},{"header":{"parameterUnit":"m.s-1","parameterCategory":2,"la1":30.2991,"la2":30.254,"lo1":-89.0895,"lo2":-89.0444,"dy":0.0017,"dx":0.0017,"nx":28,"ny":28,"refTime":"2023-04-22T21:00:00:Z","depth":"2","parameterNumber":3,"parameterNumberName":"V-component_of_CURRENTS"},"data":[0,0,0,0,0,0,0,0,0,0,0,0,0,0,0,0,0,0,0,0,0,0,0,0,0,0,0,0,0,0,0,0,0,0,0,0,0,0,0,0,0,0,0,0,0,0,0,0,0,0,0,0,0,0,0,0,0,0,-0.0202,-0.0202,0,-0.0155,-0.0155,-0.0154,-0.0116,-0.0116,-0.0116,-0.0115,-0.0035,-0.0033,-0.0032,0,0,0,0,0,0,0,0,0,0,0,0,0,-0.0233,-0.0233,-0.0202,-0.0202,-0.0201,-0.0156,-0.0155,-0.0154,-0.0116,-0.0116,-0.0116,-0.0115,-0.0036,-0.0034,-0.0031,0,0,0,0,0,0,0,0,0,0,0,0,0,-0.0206,-0.0233,-0.0202,-0.0178,-0.0175,-0.0156,-0.0155,-0.0154,-0.0116,-0.0116,-0.0115,-0.0115,-0.0037,-0.0034,-0.0031,-0.0023,0,0,-0.0023,-0.0021,0,0,0,0,0,0,0,0,-0.0207,-0.0204,-0.0182,-0.0179,-0.0176,-0.0142,-0.0136,-0.0109,-0.0116,-0.0138,-0.0115,-0.0115,-0.0069,-0.0063,-0.0055,-0.0019,-0.0016,-0.0022,-0.0021,-0.002,-0.0019,0,0,0,0,0,0,0,-0.0209,-0.0206,-0.0183,-0.0181,-0.0178,-0.016,-0.0156,-0.0131,-0.0105,-0.0136,-0.0133,-0.013,-0.0067,-0.0058,-0.0052,-0.0015,-0.0022,-0.002,-0.0018,-0.0017,0.0039,0.0039,0,0,0,0,0,0,-0.0219,-0.0208,-0.0184,-0.0182,-0.0192,-0.016,-0.0155,-0.0153,-0.0106,-0.0099,-0.013,-0.0128,-0.0062,-0.0056,-0.0049,-0.0038,-0.002,-0.0017,-0.0015,0.0039,0.0039,0.0039,0,0,0,0,0,0,-0.022,-0.0217,-0.0186,-0.0194,-0.0189,-0.016,-0.0158,-0.0152,-0.0144,-0.0102,-0.0094,-0.0127,-0.0062,-0.0053,-0.0031,-0.0034,-0.0016,-0.0013,0.004,0.0039,0.0039,-0.0014,0,0,0,0,0,0,-0.0221,-0.0218,-0.0221,-0.0195,-0.0189,-0.0182,-0.0158,-0.0152,-0.0142,-0.0139,-0.0097,-0.0089,-0.0061,-0.0036,-0.0028,-0.003,-0.0011,0.004,0.004,0.0039,-0.0012,-0.0016,-0.0019,0,0,0,0,0,-0.0222,-0.0233,-0.0222,-0.0219,-0.0194,-0.0183,-0.0178,-0.0155,-0.0143,-0.0145,-0.0115,-0.0091,-0.0032,-0.0034,-0.0025,-0.0026,0.004,0.004,0.0039,-0.001,-0.0015,-0.0019,0,0,0,0,0,0,-0.0248,-0.0229,-0.0217,-0.0221,-0.0205,-0.0177,-0.0177,-0.016,-0.0138,-0.0135,-0.0094,-0.0084,-0.0066,-0.004,-0.0042,-0.001,0.0008,0.001,-0.0032,-0.0036,-0.004,-0.005,-0.0009,0,0,0,0,0,-0.0256,-0.0258,-0.0235,-0.0238,-0.0233,-0.0206,-0.0198,-0.0183,-0.016,-0.015,-0.012,-0.0088,-0.0061,-0.0044,-0.0019,-0.0002,0.003,0.0004,0.0,-0.0003,-0.0006,0.004,0.0041,0.0038,0.0038,0.0038,0,0,-0.0266,-0.0256,-0.0257,-0.0243,-0.0229,-0.0231,-0.02,-0.0195,-0.0193,-0.0145,-0.0134,-0.0103,-0.0061,-0.0043,-0.0032,-0.002,0.0013,-0.0004,-0.0007,-0.0007,0.004,0.004,0.0041,0.0038,0.0038,0.0038,0,0,-0.0294,-0.028,-0.0293,-0.0286,-0.0272,-0.0253,-0.0255,-0.023,-0.0215,-0.0202,-0.0166,-0.0135,-0.0099,-0.0065,-0.0044,-0.0052,-0.0011,-0.0046,-0.0068,-0.0024,-0.0023,-0.0022,0.0013,0.0018,-0.0044,-0.0044,-0.0044,0,-0.0309,-0.0321,-0.0295,-0.0309,-0.0308,-0.0267,-0.0283,-0.0263,-0.0233,-0.0221,-0.0207,-0.0144,-0.0108,-0.0075,-0.0077,-0.006,-0.0033,-0.0056,-0.0029,-0.0027,-0.0025,0.0011,0.0017,-0.0046,-0.0046,-0.0046,-0.0046,0,-0.0349,-0.0358,-0.0367,-0.0367,-0.0361,-0.0369,-0.0339,-0.0327,-0.0302,-0.0276,-0.0243,-0.019,-0.0151,-0.0133,-0.0107,-0.0077,-0.0062,-0.0043,-0.002,-0.0028,0.0011,0.0018,-0.005,-0.0049,-0.0048,-0.0048,0,0,-0.0383,-0.0394,-0.0398,-0.0409,-0.0395,-0.0395,-0.0389,-0.0369,-0.0364,-0.0321,-0.0304,-0.0248,-0.0213,-0.0186,-0.0142,-0.0099,-0.0061,-0.0071,-0.0067,-0.004,0.0029,0.0066,0.0077,-0.0039,-0.0038,-0.0037,0.0049,0,-0.0424,-0.0469,-0.0455,-0.0485,-0.0504,-0.0467,-0.0466,-0.044,-0.0406,-0.0378,-0.0307,-0.0276,-0.0234,-0.0214,-0.0164,-0.0086,-0.0045,-0.0087,0.0037,0.0041,0.0072,0.0086,0.0071,0.0148,0.0056,0.0057,0.0058,0,-0.0471,-0.0494,-0.0539,-0.0549,-0.0553,-0.056,-0.0545,-0.0539,-0.0484,-0.0455,-0.0402,-0.0344,-0.0271,-0.0236,-0.0106,-0.0136,-0.0063,0.0,0.0005,0.0063,0.0091,0.0144,0.0165,0.007,0.0069,0.0068,0.0067,0,-0.0517,-0.0549,-0.0587,-0.0594,-0.0599,-0.0605,-0.0602,-0.0566,-0.0561,-0.0502,-0.0481,-0.0388,-0.0336,-0.0232,-0.0096,-0.0103,0.0051,0.006,0.0161,0.0165,0.0189,0.0193,0.0147,0.0147,0.0146,0.0146,0.0146,0,-0.0568,-0.0597,-0.0615,-0.0638,-0.0679,-0.0659,-0.0686,-0.0662,-0.0628,-0.062,-0.0526,-0.0489,-0.0332,-0.0221,-0.0107,0.0056,0.0046,0.0163,0.0194,0.017,0.0171,0.0132,0.013,0.0149,0.0149,0.0148,0.0147,0,-0.0613,-0.0625,-0.0672,-0.0695,-0.0705,-0.0736,-0.0752,-0.0767,-0.0721,-0.0702,-0.0682,-0.0557,-0.0407,-0.0241,-0.0059,0.0044,0.0192,0.0249,0.0208,0.0233,0.0274,0.0268,0.0365,0.0367,0.0369,0.0371,0.0372,0,-0.0641,-0.0672,-0.0724,-0.0762,-0.0776,-0.0819,-0.0849,-0.0823,-0.0825,-0.0742,-0.0728,-0.058,-0.0463,-0.0175,0.0033,0.0251,0.0245,0.0355,0.0344,0.0279,0.0299,0.029,0.0281,0.0351,0.0352,0.0353,0.0354,0,-0.0691,-0.0709,-0.075,-0.0836,-0.0881,-0.0931,-0.0958,-0.0966,-0.092,-0.0879,-0.0788,-0.0684,-0.0397,-0.0145,0.0146,0.0265,0.032,0.0378,0.0336,0.0297,0.0273,0.029,0.0281,0.0361,0.036,0.036,0.0359,0.0359,-0.0723,-0.077,-0.083,-0.0907,-0.0966,-0.1018,-0.1048,-0.1048,-0.1035,-0.0941,-0.0837,-0.065,-0.04,0.0021,0.0227,0.0416,0.0401,0.0451,0.0446,0.044,0.0422,0.0402,0.051,0.0511,0.0511,0.0511,0.0511,0,-0.0763,-0.0818,-0.0898,-0.0984,-0.1055,-0.1069,-0.1101,-0.11,-0.1073,-0.0952,-0.0835,-0.0545,-0.0241,0.0022,0.0335,0.0513,0.0489,0.0537,0.0474,0.0467,0.046,0.044,0.0535,0.0536,0.0536,0.0537,0,0,-0.0785,-0.0868,-0.0913,-0.1038,-0.1096,-0.1156,-0.1165,-0.1141,-0.1053,-0.0932,-0.0777,-0.056,-0.0226,-0.0001,0.023,0.0398,0.0379,0.0407,0.0369,0.0261,0.0252,0.0395,0.0355,0,0,0,0,0]}],[{"header":{"parameterUnit":"m.s-1","parameterCategory":2,"la1":30.2991,"la2":30.254,"lo1":-89.0895,"lo2":-89.0444,"dy":0.0017,"dx":0.0017,"nx":28,"ny":28,"refTime":"2023-04-22T21:00:00:Z","depth":"4","parameterNumber":2,"parameterNumberName":"U-component_of_CURRENTS"},"data":[0,0,0,0,0,0,0,0,0,0,0,0,0,0,0,0,0,0,0,0,0,0,0,0,0,0,0,0,0,0,0,0,0,0,0,0,0,0,0,0,0,0,0,0,0,0,0,0,0,0,0,0,0,0,0,0,0,0,-0.1579,-0.158,0,-0.1643,-0.1644,-0.1645,-0.1673,-0.1673,-0.1673,-0.1673,-0.1726,-0.1727,-0.1729,0,0,0,0,0,0,0,0,0,0,0,0,0,-0.1485,-0.1487,-0.1579,-0.158,-0.1581,-0.1643,-0.1644,-0.1645,-0.1673,-0.1673,-0.1673,-0.1673,-0.1726,-0.1727,-0.1729,0,0,0,0,0,0,0,0,0,0,0,0,0,-0.1534,-0.1487,-0.1579,-0.1603,-0.1606,-0.1643,-0.1644,-0.1645,-0.1673,-0.1673,-0.1673,-0.1673,-0.1725,-0.1727,-0.1729,-0.1741,0,0,-0.1735,-0.1736,0,0,0,0,0,0,0,0,-0.1531,-0.1537,-0.1599,-0.1602,-0.1605,-0.1651,-0.163,-0.1677,-0.1673,-0.1646,-0.1673,-0.1673,-0.1701,-0.1705,-0.1715,-0.1743,-0.1745,-0.1736,-0.1737,-0.1738,-0.1738,0,0,0,0,0,0,0,-0.1528,-0.1535,-0.1603,-0.16,-0.1604,-0.1613,-0.162,-0.1639,-0.1671,-0.1649,-0.1651,-0.1661,-0.1702,-0.1713,-0.1717,-0.1746,-0.1735,-0.1737,-0.1739,-0.1739,-0.1836,-0.1838,0,0,0,0,0,0,-0.1523,-0.1532,-0.1601,-0.1605,-0.1569,-0.1615,-0.1622,-0.1635,-0.1671,-0.1678,-0.166,-0.1662,-0.171,-0.1714,-0.1719,-0.1786,-0.1738,-0.174,-0.1741,-0.1835,-0.1837,-0.1838,0,0,0,0,0,0,-0.152,-0.1528,-0.1598,-0.157,-0.158,-0.1616,-0.1631,-0.1637,-0.1669,-0.1681,-0.1686,-0.1689,-0.171,-0.1716,-0.1757,-0.1786,-0.1741,-0.1742,-0.1833,-0.1836,-0.1837,-0.1888,0,0,0,0,0,0,-0.1517,-0.1527,-0.1547,-0.157,-0.1582,-0.1636,-0.1631,-0.1638,-0.1674,-0.1677,-0.1707,-0.171,-0.171,-0.1754,-0.1759,-0.1788,-0.1744,-0.1832,-0.1834,-0.1837,-0.1884,-0.1891,-0.1897,0,0,0,0,0,-0.1514,-0.1536,-0.1547,-0.1556,-0.1603,-0.1637,-0.1644,-0.1668,-0.1675,-0.1696,-0.1718,-0.1711,-0.1774,-0.1758,-0.1763,-0.1793,-0.1831,-0.1834,-0.1837,-0.1882,-0.189,-0.1897,0,0,0,0,0,0,-0.1508,-0.1542,-0.1554,-0.1588,-0.1618,-0.1643,-0.1668,-0.1683,-0.1717,-0.1725,-0.1731,-0.1737,-0.1783,-0.1783,-0.1764,-0.1828,-0.18,-0.1804,-0.1832,-0.184,-0.1846,-0.1837,-0.1746,0,0,0,0,0,-0.1515,-0.1542,-0.1573,-0.1603,-0.1619,-0.1648,-0.1669,-0.1687,-0.1715,-0.1731,-0.1752,-0.1774,-0.1797,-0.1814,-0.1833,-0.1872,-0.1856,-0.1893,-0.19,-0.1905,-0.1901,-0.1908,-0.1914,-0.1848,-0.1848,-0.1848,0,0,-0.1521,-0.1544,-0.1561,-0.1604,-0.1629,-0.1661,-0.1661,-0.1702,-0.1734,-0.1731,-0.1786,-0.18,-0.1812,-0.1854,-0.1874,-0.186,-0.1917,-0.1909,-0.1913,-0.1906,-0.1911,-0.1918,-0.1923,-0.185,-0.185,-0.1849,0,0,-0.1539,-0.1569,-0.1595,-0.1624,-0.1668,-0.1687,-0.1704,-0.1744,-0.1769,-0.1819,-0.1823,-0.1855,-0.1896,-0.1908,-0.1918,-0.1972,-0.195,-0.1982,-0.2009,-0.2016,-0.2021,-0.2025,-0.2014,-0.2017,-0.1986,-0.1986,-0.1986,0,-0.1547,-0.1583,-0.1609,-0.1642,-0.1669,-0.1701,-0.1736,-0.1768,-0.1819,-0.184,-0.1845,-0.1907,-0.192,-0.1961,-0.1979,-0.1986,-0.1978,-0.1979,-0.2023,-0.2027,-0.2031,-0.2018,-0.2021,-0.1989,-0.1988,-0.1988,-0.1988,0,-0.1576,-0.1616,-0.1636,-0.1687,-0.172,-0.1758,-0.1799,-0.184,-0.1873,-0.1898,-0.1954,-0.1974,-0.2004,-0.2019,-0.2017,-0.2054,-0.2036,-0.2029,-0.2001,-0.204,-0.2025,-0.2026,-0.1993,-0.1992,-0.1991,-0.199,0,0,-0.1559,-0.1641,-0.165,-0.1678,-0.1748,-0.1771,-0.1834,-0.1887,-0.1923,-0.1973,-0.2014,-0.2059,-0.2065,-0.2076,-0.2081,-0.2091,-0.2111,-0.2073,-0.2072,-0.2056,-0.2114,-0.1984,-0.1973,-0.2113,-0.2114,-0.2114,-0.2093,0,-0.1575,-0.1636,-0.1678,-0.1739,-0.177,-0.1823,-0.1874,-0.1927,-0.1974,-0.2021,-0.2051,-0.2091,-0.2088,-0.2105,-0.2118,-0.2114,-0.2118,-0.2116,-0.2083,-0.2082,-0.1956,-0.1971,-0.2116,-0.2094,-0.2095,-0.2095,-0.2095,0,-0.1579,-0.1621,-0.1683,-0.1758,-0.1777,-0.1822,-0.1897,-0.1948,-0.2021,-0.2057,-0.2102,-0.2123,-0.2155,-0.2143,-0.2154,-0.2153,-0.2137,-0.2128,-0.2127,-0.1984,-0.1954,-0.2047,-0.2097,-0.2097,-0.2097,-0.2097,-0.2097,0,-0.1528,-0.1617,-0.1665,-0.1693,-0.1786,-0.1826,-0.1878,-0.1958,-0.2001,-0.2077,-0.211,-0.2152,-0.2174,-0.217,-0.2158,-0.2159,-0.2153,-0.215,-0.2016,-0.2007,-0.2109,-0.2104,-0.2148,-0.2148,-0.2148,-0.2148,-0.2148,0,-0.1506,-0.1545,-0.1649,-0.1671,-0.1728,-0.1801,-0.1865,-0.1926,-0.2009,-0.2042,-0.2119,-0.2139,-0.2183,-0.2187,-0.2166,-0.2085,-0.2159,-0.2011,-0.199,-0.2131,-0.213,-0.211,-0.2105,-0.2147,-0.2147,-0.2148,-0.2148,0,-0.1434,-0.1508,-0.1564,-0.1669,-0.1705,-0.1742,-0.1853,-0.1888,-0.1984,-0.203,-0.2053,-0.2136,-0.2132,-0.2154,-0.2144,-0.2077,-0.2026,-0.1981,-0.2123,-0.2113,-0.1873,-0.1873,-0.182,-0.1815,-0.1811,-0.1807,-0.1804,0,-0.14,-0.1424,-0.1542,-0.1574,-0.1627,-0.17,-0.1744,-0.1858,-0.1892,-0.2001,-0.2002,-0.2051,-0.208,-0.1965,-0.2005,-0.1949,-0.1929,-0.1889,-0.1882,-0.1853,-0.1839,-0.1845,-0.1849,-0.1798,-0.1797,-0.1796,-0.1795,0,-0.1326,-0.1381,-0.1424,-0.1494,-0.155,-0.1603,-0.1676,-0.1688,-0.1796,-0.1906,-0.1893,-0.1883,-0.188,-0.1868,-0.184,-0.1803,-0.1906,-0.1846,-0.1854,-0.1847,-0.1826,-0.1818,-0.1827,-0.178,-0.1782,-0.1784,-0.1785,0,-0.1267,-0.128,-0.1345,-0.1388,-0.1458,-0.1472,-0.153,-0.1561,-0.161,-0.1734,-0.172,-0.1776,-0.1855,-0.1791,-0.1763,-0.1718,-0.1691,-0.163,-0.1649,-0.1666,-0.1624,-0.1575,-0.1423,0,0,0,0,0,-0.1199,-0.1198,-0.1233,-0.127,-0.1332,-0.1367,-0.1465,-0.1524,-0.1631,-0.1577,-0.1645,-0.1631,-0.1597,-0.1637,-0.1554,-0.1686,-0.1694,-0.1582,-0.1634,-0.1701,-0.1718,-0.1683,0,0,0,0,0,0,-0.1153,-0.1182,-0.119,-0.1155,-0.1154,-0.1203,-0.1256,-0.1332,-0.1319,-0.1437,-0.1434,-0.1522,-0.1521,-0.1611,-0.1516,-0.1524,-0.152,-0.1628,-0.1623,-0.1692,-0.1707,-0.172,-0.169,0,0,0,0,0]},{"header":{"parameterUnit":"m.s-1","parameterCategory":2,"la1":30.2991,"la2":30.254,"lo1":-89.0895,"lo2":-89.0444,"dy":0.0017,"dx":0.0017,"nx":28,"ny":28,"refTime":"2023-04-22T21:00:00:Z","depth":"4","parameterNumber":3,"parameterNumberName":"V-component_of_CURRENTS"},"data":[0,0,0,0,0,0,0,0,0,0,0,0,0,0,0,0,0,0,0,0,0,0,0,0,0,0,0,0,0,0,0,0,0,0,0,0,0,0,0,0,0,0,0,0,0,0,0,0,0,0,0,0,0,0,0,0,0,0,-0.0104,-0.0103,0,-0.0075,-0.0075,-0.0074,-0.0047,-0.0046,-0.0046,-0.0046,0.0013,0.0014,0.0016,0,0,0,0,0,0,0,0,0,0,0,0,0,-0.0116,-0.0116,-0.0104,-0.0103,-0.0103,-0.0075,-0.0075,-0.0074,-0.0047,-0.0046,-0.0046,-0.0046,0.0013,0.0014,0.0016,0,0,0,0,0,0,0,0,0,0,0,0,0,-0.0101,-0.0116,-0.0104,-0.0086,-0.0085,-0.0075,-0.0075,-0.0074,-0.0047,-0.0046,-0.0046,-0.0045,0.0012,0.0014,0.0016,0.0019,0,0,0.0022,0.0023,0,0,0,0,0,0,0,0,-0.0102,-0.01,-0.0089,-0.0088,-0.0086,-0.0065,-0.0058,-0.0042,-0.0047,-0.006,-0.0046,-0.0045,-0.0011,-0.0007,-0.0002,0.0022,0.0025,0.0022,0.0023,0.0024,0.0025,0,0,0,0,0,0,0,-0.0103,-0.0101,-0.0091,-0.0089,-0.0087,-0.0074,-0.0072,-0.0054,-0.0037,-0.0059,-0.0057,-0.0055,-0.001,-0.0004,-0.0,0.0026,0.0022,0.0024,0.0025,0.0026,0.0054,0.0054,0,0,0,0,0,0,-0.011,-0.0103,-0.0092,-0.0091,-0.0094,-0.0075,-0.0072,-0.0071,-0.0038,-0.0033,-0.0056,-0.0054,-0.0007,-0.0003,0.0002,0.0002,0.0024,0.0026,0.0027,0.0055,0.0054,0.0054,0,0,0,0,0,0,-0.011,-0.0109,-0.0094,-0.0096,-0.0094,-0.0075,-0.0075,-0.0071,-0.0067,-0.0036,-0.003,-0.0056,-0.0007,-0.0001,0.0012,0.0005,0.0027,0.0029,0.0055,0.0055,0.0054,0.0006,0,0,0,0,0,0,-0.0111,-0.0109,-0.0114,-0.0097,-0.0094,-0.0095,-0.0075,-0.0071,-0.0066,-0.0064,-0.0034,-0.0028,-0.0006,0.0008,0.0013,0.0008,0.003,0.0056,0.0055,0.0054,0.0008,0.0003,-0.0,0,0,0,0,0,-0.0111,-0.0122,-0.0114,-0.0113,-0.01,-0.0096,-0.0093,-0.0077,-0.0067,-0.0071,-0.005,-0.0029,0.0007,0.0009,0.0016,0.001,0.0056,0.0055,0.0054,0.001,0.0004,-0.0,0,0,0,0,0,0,-0.0131,-0.012,-0.0111,-0.0118,-0.011,-0.0091,-0.0094,-0.0082,-0.0069,-0.0066,-0.0035,-0.0028,-0.0021,0.0001,0.0002,0.0016,0.0035,0.0036,-0.0001,-0.0005,-0.0009,-0.0015,0.0032,0,0,0,0,0,-0.0138,-0.0141,-0.0128,-0.0133,-0.0131,-0.0113,-0.011,-0.01,-0.0085,-0.0079,-0.0058,-0.0036,-0.002,-0.0008,0.0007,0.0016,0.0049,0.0017,0.0013,0.0009,0.0009,0.0052,0.0052,0.0051,0.0051,0.0051,0,0,-0.0146,-0.0141,-0.0143,-0.0137,-0.0129,-0.0136,-0.011,-0.011,-0.0114,-0.0074,-0.0073,-0.0052,-0.0022,-0.0015,-0.0009,0.0003,0.0027,0.0008,0.0005,0.0007,0.0051,0.0052,0.0052,0.005,0.005,0.005,0,0,-0.017,-0.0162,-0.0174,-0.0173,-0.0166,-0.0155,-0.0158,-0.0143,-0.0135,-0.0131,-0.0104,-0.0086,-0.0064,-0.0041,-0.0027,-0.0043,0.0001,-0.0039,-0.0059,-0.0017,-0.0016,-0.0015,0.0026,0.0031,-0.0037,-0.0037,-0.0037,0,-0.0181,-0.0195,-0.0178,-0.0191,-0.0195,-0.0167,-0.0184,-0.0173,-0.0156,-0.0149,-0.0139,-0.0099,-0.0076,-0.0057,-0.0063,-0.0051,-0.002,-0.0044,-0.0022,-0.002,-0.0018,0.0024,0.003,-0.004,-0.0039,-0.0039,-0.0039,0,-0.0215,-0.0227,-0.0236,-0.0243,-0.0243,-0.0254,-0.0238,-0.0234,-0.0218,-0.0202,-0.0183,-0.0147,-0.0121,-0.0111,-0.0092,-0.007,-0.0049,-0.0035,-0.001,-0.0021,0.0024,0.0032,-0.0043,-0.0042,-0.0042,-0.0041,0,0,-0.0239,-0.0257,-0.0261,-0.0274,-0.0273,-0.0277,-0.0282,-0.0275,-0.0275,-0.0247,-0.0239,-0.0206,-0.0177,-0.0159,-0.0127,-0.0089,-0.005,-0.006,-0.0056,-0.0019,0.0046,0.0042,0.0051,-0.003,-0.0029,-0.0028,0.0071,0,-0.0272,-0.0314,-0.0309,-0.0343,-0.0363,-0.0342,-0.035,-0.0337,-0.0316,-0.0299,-0.0247,-0.023,-0.0198,-0.0184,-0.0142,-0.0074,-0.0032,-0.0078,0.0051,0.0055,0.0054,0.0058,-0.0025,0.0077,0.0079,0.008,0.0081,0,-0.0308,-0.0332,-0.0377,-0.0397,-0.0403,-0.0418,-0.0419,-0.0422,-0.0387,-0.0368,-0.0329,-0.0284,-0.0227,-0.0199,-0.008,-0.0109,-0.0039,0.0018,0.0024,0.0043,0.0066,0.0092,0.0095,0.0094,0.0093,0.0092,0.0091,0,-0.0338,-0.0376,-0.0415,-0.0425,-0.0444,-0.0457,-0.0463,-0.0447,-0.045,-0.0408,-0.0396,-0.0318,-0.0278,-0.018,-0.0064,-0.0069,0.0074,0.0084,0.015,0.0152,0.0147,0.0145,0.0169,0.0169,0.0169,0.0168,0.0168,0,-0.0373,-0.0404,-0.0436,-0.0459,-0.0505,-0.0499,-0.0536,-0.0523,-0.0507,-0.0509,-0.0436,-0.041,-0.0271,-0.0173,-0.0068,0.0065,0.0075,0.015,0.0177,0.0123,0.0117,0.0152,0.0149,0.0172,0.0171,0.0171,0.017,0,-0.0398,-0.042,-0.047,-0.0507,-0.0523,-0.0558,-0.0594,-0.0614,-0.0587,-0.0583,-0.057,-0.0468,-0.034,-0.0194,-0.0025,0.0054,0.0184,0.0228,0.0162,0.0183,0.0235,0.0228,0.0312,0.0313,0.0313,0.0314,0.0314,0,-0.0414,-0.0444,-0.0513,-0.0554,-0.0576,-0.0629,-0.0667,-0.0661,-0.067,-0.062,-0.061,-0.0492,-0.041,-0.0166,-0.0021,0.019,0.0214,0.028,0.0255,0.0232,0.0251,0.0242,0.0235,0.0315,0.0315,0.0316,0.0316,0,-0.0444,-0.0472,-0.0515,-0.0606,-0.0661,-0.0719,-0.0758,-0.0764,-0.0745,-0.0722,-0.0632,-0.0504,-0.0356,-0.017,-0.0001,0.0144,0.0236,0.0287,0.0286,0.0263,0.0237,0.0253,0.0245,0.0318,0.0317,0.0317,0.0317,0,-0.0465,-0.0508,-0.0574,-0.065,-0.0725,-0.0778,-0.0798,-0.079,-0.0785,-0.0705,-0.0681,-0.0516,-0.0416,-0.0193,-0.0044,0.0106,0.0138,0.0176,0.0181,0.0181,0.0109,0.0055,0.0105,0,0,0,0,0,-0.0483,-0.0537,-0.0614,-0.0697,-0.0773,-0.0809,-0.0843,-0.0846,-0.0818,-0.0758,-0.0711,-0.057,-0.0335,-0.0235,-0.0083,-0.0043,0.0153,0.0136,0.0197,0.033,0.0327,0.0264,0,0,0,0,0,0,-0.0499,-0.0572,-0.0616,-0.0719,-0.0777,-0.0852,-0.087,-0.0853,-0.0802,-0.0752,-0.0622,-0.0547,-0.0314,-0.042,-0.0085,-0.0041,0.0015,0.0251,0.0253,0.0331,0.0329,0.0327,0.0261,0,0,0,0,0]}]]